Regional Weather Roundup
Issued by NWS

Home | Current Version | Previous Version | Graphics & Text | Print | Product List | Glossary On
Versions: 1 2 3 4 5 6 7 8 9 10 11 12 13 14 15 16 17 18 19 20 21 22 23 24 25 26 27 28 29 30 31 32 33 34 35 36 37 38 39 40 41 42 43 44 45 46 47 48 49 50
000
ASUS43 KMPX 231710
RWRMN
WEATHER ROUNDUP FOR MINNESOTA
NATIONAL WEATHER SERVICE TWIN CITIES/CHANHASSEN MN
1200 PM CDT SAT MAY 23 2015


NOTE: "FAIR" INDICATES FEW OR NO CLOUDS BELOW 12,000 FEET WITH NO
SIGNIFICANT WEATHER AND/OR OBSTRUCTIONS TO VISIBILITY. N/A MEANS
CURRENT SKY AND/OR WEATHER CONDITIONS ARE NOT AVAILABLE.

MNZ060>063-068>070-231800-
   Twin Cities Metro

CITY           SKY/WX    TMP DP  RH WIND       PRES   REMARKS
TWIN CITIES    CLOUDY    67  43  41 N7        30.24S
ST PAUL        CLOUDY    67  44  43 N6        30.24F
BLAINE         CLOUDY    68  45  42 MISG      30.25F
LAKEVILLE      CLOUDY    66  45  45 NE7       30.24F
EDEN PRAIRIE   CLOUDY    66  44  45 N8        30.23S
SOUTH ST PAUL  CLOUDY    69  42  37 N7        30.23F
LAKE ELMO      FAIR      66  45  45 N6        30.25F
$$
MNZ001>005-007-008-013>017-022>024-027-028-231800-
   Northwest Minnesota

CITY           SKY/WX    TMP DP  RH WIND       PRES   REMARKS
BEMIDJI        SUNNY     70  42  35 SW7       30.18R
HALLOCK        SUNNY     73  41  31 S7        30.12S
ROSEAU         SUNNY     75  36  23 S3        30.13F
WARROAD        SUNNY     75  43  31 S8        30.14S
THIEF RVR FALL SUNNY     70  45  40 SW12G17   30.16R
CROOKSTON      SUNNY     72  46  40 SW12G22   30.16R
FOSSTON        SUNNY     70  45  40 SW14      30.19R
DETROIT LAKES  SUNNY     68  43  40 SW9       30.22S
MOORHEAD       SUNNY     70  45  40 S12       30.20S
PARK RAPIDS    SUNNY     72  42  34 SW14      30.20S
MAHNOMEN       FAIR      69  41  35 W16G22    30.19S
$$
MNZ006-009>011-018-025>026-231800-
   North Central Minnesota

CITY           SKY/WX    TMP DP  RH WIND       PRES   REMARKS
BAUDETTE       SUNNY     75  35  23 VRB6      30.14S
FLAG ISLAND    SUNNY     63  45  51 SE7       30.11F
INTL FALLS     SUNNY     76  31  19 W10       30.15S
WASKISH        SUNNY     70  46  43 CALM      30.16S
BIG FORK       SUNNY     77  39  25 S10       30.17F
LONGVILLE      SUNNY     72  45  37 SW7       30.20R
GRAND RAPIDS   SUNNY     73  37  27 S6        30.20R
CRANE LAKE     SUNNY     73  34  23 NW9       30.17F
ORR            SUNNY     75  32  20 W6        30.15S
COOK           SUNNY     73  37  27 S7        30.17F
WALKER         FAIR      70  41  35 S8        30.18S
$$
MNZ012-019>021-037-231800-
   Northeast Minnesota

CITY           SKY/WX    TMP DP  RH WIND       PRES   REMARKS
DULUTH         MOSUNNY   74  38  27 VRB7      30.20S
ELY            SUNNY     73  34  23 NW12G20   30.17F
HIBBING        SUNNY     74  34  23 SW10      30.18F
EVELETH        SUNNY     72  36  26 SW5       30.20S
DULUTH HARBOR  SUNNY     75  36  23 SW9       30.19S
TWO HARBORS    SUNNY     79  48  34 S14       30.17S
SILVER BAY     SUNNY     79  37  22 SW9       30.16S
GRAND MARAIS     N/A     54  38  54 W12G20    30.14F
G MARAIS ARPRT SUNNY     75  34  22 W6        30.17S
$$
MNZ029>031-032-039>041-046>048-054>057-064-231800-
   West Central Minnesota

CITY           SKY/WX    TMP DP  RH WIND       PRES   REMARKS
FERGUS FALLS   SUNNY     70  43  37 S12G18    30.22S
WHEATON        MOSUNNY   64  43  45 SE17      30.22F
MORRIS         PTSUNNY   66  45  45 SE10      30.21F
ALEXANDRIA     PTSUNNY   63  42  46 S8        30.25S
ELBOW LAKE     CLOUDY    65  43  45 SE10      30.22S
WADENA         SUNNY     68  43  40 SW10      30.22R
GLENWOOD       CLOUDY    63  45  51 S7        30.25S
APPLETON       CLOUDY    66  45  45 S14       30.21F
BENSON         CLOUDY    64  45  48 S9        30.22F
ORTONVILLE     CLOUDY    66  45  45 SE13G20   30.20S
MADISON        CLOUDY    66  45  45 SE16G25   30.21S
WILLMAR        FAIR      64  48  55 E9        30.24F
$$
MNZ033>034-036-042>043-049>051-058-059-231800-
   Central Minnesota

CITY           SKY/WX    TMP DP  RH WIND       PRES   REMARKS
ST CLOUD       CLOUDY    66  46  48 CALM      30.24F
SAUK CENTRE    CLOUDY    64  44  48 S8        30.25R
PAYNESVILLE    CLOUDY    60  45  58 SE3       30.26S
AITKIN         SUNNY     72  43  35 SW7       30.19F
PINE RIVER     SUNNY     70  46  43 W8        30.23S
BRAINERD       SUNNY     70  41  34 W10G21    30.22S
STAPLES        MOSUNNY   70  39  32 SW9G16    30.23R
LONG PRAIRIE   PTSUNNY   63  43  48 S7        30.25S
LITTLE FALLS   MOSUNNY   68  37  32 SW8G16    30.25R
LITCHFIELD     DRIZZLE   63  52  67 CALM      30.26S
BUFFALO        CLOUDY    65  45  47 N3        30.25S
MAPLE LAKE     DRIZZLE   64  49  57 W3        30.26R
$$
MNZ037-044-045-052-053-231800-
   East Central Minnesota

CITY           SKY/WX    TMP DP  RH WIND       PRES   REMARKS
PRINCETON      LGT RAIN  68  46  45 SW3       30.25S
MORA           MOSUNNY   70  43  37 W6        30.24S
CAMBRIDGE      PTSUNNY   70  48  46 W8        30.23S
RUSH CITY      PTSUNNY   69  46  42 W7        30.24S
MOOSE LAKE     SUNNY     72  39  30 SW9       30.18F
HINCKLEY       FAIR      72  45  37 S6        30.21F
CLOQUET        SUNNY     73  30  20 SW9G17    30.20S
MCGREGOR       SUNNY     72  37  28 S6        30.20F
$$
MNZ071>073-080-081-089-090-097-098-231800-
   Southwest Minnesota

CITY           SKY/WX    TMP DP  RH WIND       PRES   REMARKS
MONTEVIDEO     LGT RAIN  64  50  59 S8        30.22F
GRANITE FALLS  CLOUDY    62  47  58 SE13      30.23F
CANBY          CLOUDY    63  48  57 SE12G17   30.21F
MARSHALL       CLOUDY    61  46  59 SE14      30.21F
REDWOOD FALLS  LGT RAIN  59  55  87 E7        30.23F
OLIVIA         LGT RAIN  59  46  63 CALM      30.23S
PIPESTONE      CLOUDY    61  52  72 SE12      30.20S
WINDOM         CLOUDY    66  46  48 SE14G20   30.22F
WORTHINGTON    PTSUNNY   64  46  52 SE15      30.20F
JACKSON        PTSUNNY   68  48  49 SE15      30.23S
TRACY          CLOUDY    62  56  80 E9        30.22F
SLAYTON        CLOUDY    64  49  58 SE14      30.21F
$$
MNZ065>067-074>077-082>085-091>093-231800-
   South Central Minnesota

CITY           SKY/WX    TMP DP  RH WIND       PRES   REMARKS
MANKATO        CLOUDY    66  45  45 NE6       30.24F
NEW ULM        CLOUDY    63  48  59 E6        30.24S
ST JAMES       CLOUDY    66  50  55 E9        30.24F
FAIRMONT       CLOUDY    66  43  42 SE13G20   30.23F
GLENCOE        CLOUDY    64  50  59 N5        30.24S
FARIBAULT      CLOUDY    66  45  45 CALM      30.25S
OWATONNA       CLOUDY    66  45  45 NE6       30.25S
WASECA         CLOUDY    64  45  48 E7        30.26S
ALBERT LEA     CLOUDY    68  45  42 E8        30.25F
$$
MNZ078>079-086>088-094>096-231800-
   Southeast Minnesota

CITY           SKY/WX    TMP DP  RH WIND       PRES   REMARKS
ROCHESTER      LGT RAIN  66  46  48 NE8       30.27S
RED WING       CLOUDY    70  41  35 NW5       30.24S
STANTON        CLOUDY    69  42  38 NE6       30.24F
DODGE CENTER   CLOUDY    66  45  45 E9        30.26F
WINONA         PTSUNNY   70  50  49 NE5       30.26S
AUSTIN         PTSUNNY   68  46  45 NE7       30.25F
PRESTON        PTSUNNY   68  42  37 E3        30.28S
$$
ABBREVIATIONS USED IN REMARKS
   TC - TEMPERATURES IN CELSIUS
  WCI - WIND CHILL INDEX
   HX - HEAT INDEX
  VSB - VISIBILITY
$$


USA.gov is the U.S. government's official web portal to all federal, state and local government web resources and services.